User: anonymous   Login
Location: Caltech
(34.1382°N, 118.1253°W)
Time: 08:02:04
(UTC-08:00)
Language:

Cosmos 44 Rocket - Orbit

View from above orbital plane
View from above orbital plane
View from above satellite
View from above satellite

Ground track
Ground track

The orbit data is extracted from the following two-line orbital elements,

1 00877U 64053B   15063.46604940  .00000377  00000-0  10341-3 0  9997
2 00877 065.0778 213.9003 0050196 075.0910 285.5740 14.59049330679571
Epoch (UTC): 04 March 2015 11:11:06
Eccentricity: 0.0050196
inclination: 65.0778°
perigee height: 661 km
apogee height: 732 km
right ascension of ascending node: 213.9003°
argument of perigee: 75.0910°
revolutions per day: 14.59049330
mean anomaly at epoch: 285.5740°
orbit number at epoch: 67957

The dashed part of the orbit path shows where the satellite is in the earth's shadow,  

DLR